Location: Remedello Sotto
(45.2500°N, 10.3667°E)
Time: 10:46:08
(UTC+00:00)

YAOGAN 1 - Pass Details

Date: 03 February 2023
Orbit: 616 x 618 km, 97.8° (Epoch: 30 March)

Event Time Altitude Azimuth Distance (km) Brightness Sun altitude
Rises 18:04:30 0° 166° (SSE) 2,878 5.9 -17.2°
Reaches altitude 10° 18:06:41 10° 167° (SSE) 1,977 5.1 -17.6°
Maximum altitude 18:10:59 86° 254° (WSW) 627 2.5 -18.3°
Drops below altitude 10° 18:15:20 10° 346° (NNW) 1,995 5.3 -19.1°
Sets 18:17:32 0° 347° (NNW) 2,906 6.1 -19.5°
